When you browse on this site, cookies collect data to enhance your experience and personalize the content and advertising you see.
Visit our Privacy Policy to learn more. By continuing to use the site, you agree to this use of cookies and data.
  • In United Kingdom
  • List of Countries
  • For 7 days
  • Water Temperature
  • Satellite Maps
  • Weather Map
  • Weather Widgets
  • user-avatar
    Login

    Hourly Weather Escuintla

    Today, 21 February, Thursday

    Time Temperature Precipitation Wind Pressure Humidity
    00:00 +22°C° 0 mm 0 mps 728 mmHg 92%
    01:00 +22°C° 0 mm 0 mps 728 mmHg 91%
    02:00 +22°C° 0 mm 0 mps 728 mmHg 90%
    03:00 +24°C° 0 mm 1 mps 728 mmHg 89%
    04:00 +24°C° 0 mm 1 mps 728 mmHg 88%
    05:00 +24°C° 0 mm 1 mps 728 mmHg 87%
    06:00 +24°C° 0 mm 1 mps 728 mmHg 85%
    07:00 +26°C° 0 mm 1 mps 729 mmHg 75%
    08:00 +28°C° 0 mm 1 mps 729 mmHg 65%
    09:00 +30°C° 0 mm 1 mps 730 mmHg 55%
    10:00 +31°C° 0 mm 2 mps 729 mmHg 51%
    11:00 +32°C° 0 mm 2 mps 729 mmHg 47%
    12:00 +34°C° 0 mm 3 mps 729 mmHg 43%
    13:00 +34°C° 0 mm 3 mps 728 mmHg 44%
    14:00 +34°C° 0 mm 3 mps 728 mmHg 45%
    15:00 +34°C° 0 mm 3 mps 727 mmHg 45%
    16:00 +32°C° 0 mm 2 mps 727 mmHg 52%
    17:00 +30°C° 0 mm 2 mps 727 mmHg 59%
    18:00 +28°C° 0 mm 1 mps 727 mmHg 65%
    19:00 +27°C° 0 mm 1 mps 728 mmHg 70%
    20:00 +26°C° 0 mm 1 mps 728 mmHg 74%
    21:00 +25°C° 0 mm 1 mps 729 mmHg 78%
    22:00 +25°C° 0 mm 1 mps 729 mmHg 76%
    23:00 +25°C° 0 mm 1 mps 729 mmHg 74%

    Tomorrow, 22 February, Friday

    Time Temperature Precipitation Wind Pressure Humidity
    00:00 +25°C° 0 mm 1 mps 729 mmHg 71%
    01:00 +25°C° 0 mm 1 mps 729 mmHg 70%
    02:00 +25°C° 0 mm 1 mps 729 mmHg 69%
    03:00 +25°C° 0 mm 1 mps 728 mmHg 68%
    04:00 +25°C° 0 mm 1 mps 729 mmHg 67%
    05:00 +25°C° 0 mm 1 mps 729 mmHg 67%
    06:00 +25°C° 0 mm 1 mps 729 mmHg 66%
    07:00 +27°C° 0 mm 1 mps 730 mmHg 59%
    08:00 +30°C° 0 mm 1 mps 730 mmHg 52%
    09:00 +33°C° 0 mm 1 mps 731 mmHg 45%
    10:00 +33°C° 0 mm 1 mps 731 mmHg 43%
    11:00 +35°C° 0 mm 2 mps 731 mmHg 41%
    12:00 +36°C° 0 mm 2 mps 731 mmHg 39%
    13:00 +36°C° 0.1 mm 3 mps 730 mmHg 41%
    14:00 +35°C° 0.1 mm 3 mps 729 mmHg 43%
    15:00 +35°C° 0.1 mm 3 mps 728 mmHg 45%
    16:00 +32°C° 0.1 mm 2 mps 728 mmHg 52%
    17:00 +31°C° 0.1 mm 2 mps 728 mmHg 60%
    18:00 +29°C° 0.1 mm 1 mps 728 mmHg 68%
    19:00 +28°C° 0 mm 1 mps 729 mmHg 73%
    20:00 +27°C° 0 mm 1 mps 730 mmHg 77%
    21:00 +26°C° 0 mm 1 mps 730 mmHg 82%
    22:00 +25°C° 0 mm 1 mps 730 mmHg 80%
    23:00 +25°C° 0 mm 1 mps 730 mmHg 78%

    Day after tomorrow, 23 February, Saturday

    Time Temperature Precipitation Wind Pressure Humidity
    00:00 +25°C° 0 mm 1 mps 730 mmHg 77%
    01:00 +25°C° 0 mm 1 mps 730 mmHg 75%
    02:00 +25°C° 0 mm 1 mps 729 mmHg 73%
    03:00 +25°C° 0 mm 1 mps 729 mmHg 71%
    04:00 +25°C° 0 mm 1 mps 729 mmHg 70%
    05:00 +25°C° 0 mm 1 mps 729 mmHg 69%
    06:00 +25°C° 0 mm 1 mps 730 mmHg 67%
    07:00 +27°C° 0 mm 1 mps 730 mmHg 61%
    08:00 +30°C° 0 mm 1 mps 731 mmHg 54%
    09:00 +32°C° 0 mm 1 mps 732 mmHg 47%
    10:00 +33°C° 0.1 mm 1 mps 731 mmHg 48%
    11:00 +34°C° 0.1 mm 2 mps 731 mmHg 48%
    12:00 +35°C° 0.1 mm 2 mps 731 mmHg 48%
    13:00 +34°C° 0.5 mm 2 mps 730 mmHg 50%
    14:00 +34°C° 0.5 mm 3 mps 729 mmHg 51%
    15:00 +34°C° 0.5 mm 3 mps 728 mmHg 53%
    16:00 +32°C° 0.5 mm 2 mps 728 mmHg 59%
    17:00 +30°C° 0.5 mm 2 mps 728 mmHg 65%
    18:00 +29°C° 0.5 mm 1 mps 728 mmHg 71%
    19:00 +28°C° 0.7 mm 1 mps 729 mmHg 75%
    20:00 +27°C° 0.7 mm 1 mps 730 mmHg 79%
    21:00 +26°C° 0.7 mm 1 mps 731 mmHg 83%
    22:00 +25°C° 0.2 mm 1 mps 731 mmHg 82%
    23:00 +25°C° 0.2 mm 1 mps 731 mmHg 81%

    24 February, Sunday

    Time Temperature Precipitation Wind Pressure Humidity
    00:00 +25°C° 0.2 mm 1 mps 731 mmHg 80%
    01:00 +25°C° 0 mm 1 mps 730 mmHg 79%
    02:00 +25°C° 0 mm 1 mps 730 mmHg 78%
    03:00 +25°C° 0 mm 1 mps 729 mmHg 77%
    04:00 +25°C° 0 mm 1 mps 729 mmHg 75%
    05:00 +25°C° 0 mm 1 mps 729 mmHg 74%
    06:00 +25°C° 0 mm 2 mps 730 mmHg 72%
    07:00 +27°C° 0 mm 1 mps 730 mmHg 63%
    08:00 +30°C° 0 mm 1 mps 731 mmHg 55%
    09:00 +33°C° 0 mm 1 mps 732 mmHg 46%
    10:00 +34°C° 0 mm 1 mps 731 mmHg 41%
    11:00 +37°C° 0 mm 2 mps 731 mmHg 36%
    12:00 +38°C° 0 mm 2 mps 731 mmHg 32%
    13:00 +38°C° 0 mm 3 mps 730 mmHg 34%
    14:00 +37°C° 0 mm 3 mps 729 mmHg 37%
    15:00 +36°C° 0 mm 3 mps 728 mmHg 39%
    16:00 +34°C° 0.1 mm 2 mps 728 mmHg 47%
    17:00 +31°C° 0.1 mm 2 mps 728 mmHg 55%
    18:00 +29°C° 0.1 mm 1 mps 728 mmHg 63%
    19:00 +28°C° 0 mm 1 mps 729 mmHg 66%
    20:00 +27°C° 0 mm 1 mps 729 mmHg 69%
    21:00 +26°C° 0 mm 1 mps 730 mmHg 71%
    22:00 +26°C° 0 mm 1 mps 730 mmHg 70%
    23:00 +26°C° 0 mm 2 mps 730 mmHg 69%

    25 February, Monday

    Time Temperature Precipitation Wind Pressure Humidity
    00:00 +26°C° 0 mm 2 mps 730 mmHg 67%
    01:00 +26°C° 0 mm 2 mps 730 mmHg 67%
    02:00 +26°C° 0 mm 2 mps 729 mmHg 67%
    03:00 +25°C° 0 mm 2 mps 729 mmHg 67%
    04:00 +25°C° 0 mm 2 mps 729 mmHg 67%
    05:00 +25°C° 0 mm 2 mps 729 mmHg 67%
    06:00 +25°C° 0 mm 2 mps 730 mmHg 68%
    07:00 +28°C° 0 mm 2 mps 730 mmHg 59%
    08:00 +30°C° 0 mm 2 mps 731 mmHg 50%
    09:00 +33°C° 0 mm 1 mps 732 mmHg 41%
    10:00 +36°C° 0 mm 2 mps 731 mmHg 36%
    11:00 +38°C° 0 mm 2 mps 731 mmHg 31%
    12:00 +40°C° 0 mm 2 mps 731 mmHg 26%
    13:00 +39°C° 0 mm 2 mps 730 mmHg 28%
    14:00 +38°C° 0 mm 3 mps 729 mmHg 30%
    15:00 +37°C° 0 mm 3 mps 728 mmHg 33%
    16:00 +35°C° 0 mm 3 mps 728 mmHg 42%
    17:00 +32°C° 0 mm 2 mps 728 mmHg 51%
    18:00 +30°C° 0 mm 2 mps 729 mmHg 60%
    19:00 +28°C° 0 mm 2 mps 729 mmHg 63%
    20:00 +27°C° 0 mm 1 mps 730 mmHg 66%
    21:00 +26°C° 0 mm 1 mps 731 mmHg 70%
    22:00 +26°C° 0 mm 2 mps 731 mmHg 69%
    23:00 +26°C° 0 mm 2 mps 730 mmHg 68%

    26 February, Tuesday

    Time Temperature Precipitation Wind Pressure Humidity
    00:00 +26°C° 0 mm 2 mps 730 mmHg 67%
    01:00 +25°C° 0 mm 2 mps 730 mmHg 65%
    02:00 +25°C° 0 mm 2 mps 730 mmHg 63%
    03:00 +25°C° 0 mm 2 mps 730 mmHg 61%
    04:00 +25°C° 0 mm 2 mps 730 mmHg 59%
    05:00 +24°C° 0 mm 2 mps 730 mmHg 57%
    06:00 +24°C° 0 mm 2 mps 730 mmHg 55%
    07:00 +27°C° 0 mm 2 mps 731 mmHg 47%
    08:00 +30°C° 0 mm 2 mps 732 mmHg 40%
    09:00 +32°C° 0 mm 1 mps 732 mmHg 32%
    10:00 +35°C° 0 mm 2 mps 732 mmHg 28%
    11:00 +37°C° 0 mm 2 mps 731 mmHg 23%
    12:00 +39°C° 0 mm 2 mps 731 mmHg 19%
    13:00 +39°C° 0 mm 2 mps 730 mmHg 21%
    14:00 +38°C° 0 mm 3 mps 729 mmHg 22%
    15:00 +38°C° 0 mm 3 mps 729 mmHg 24%
    16:00 +35°C° 0 mm 3 mps 729 mmHg 33%
    17:00 +32°C° 0 mm 2 mps 729 mmHg 41%
    18:00 +29°C° 0 mm 1 mps 729 mmHg 50%
    19:00 +28°C° 0 mm 1 mps 730 mmHg 53%
    20:00 +27°C° 0 mm 1 mps 730 mmHg 56%
    21:00 +26°C° 0 mm 1 mps 731 mmHg 59%
    22:00 +26°C° 0 mm 2 mps 731 mmHg 58%
    23:00 +25°C° 0 mm 2 mps 731 mmHg 57%
    Show more